Regional Weather Roundup
Issued by NWS

Home | Current Version | Previous Version | Text Only | Print | Product List | Glossary On
Versions: 1 2 3 4 5 6 7 8 9 10 11 12 13 14 15 16 17 18 19 20 21 22 23 24 25 26 27 28 29 30 31 32 33 34 35 36 37 38 39 40 41 42 43 44 45 46 47 48 49 50
000
ASUS45 KABQ 292101
RWRNM
WEATHER ROUNDUP FOR NEW MEXICO
NATIONAL WEATHER SERVICE ALBUQUERQUE NM
300 PM MDT TUE JUL 29 2014

NOTE: "FAIR" MEANS FEW OR NO CLOUDS BELOW 12,000 FEET AGL WITH NO
       SIGNIFICANT WEATHER OR OBSTRUCTIONS TO VISION.

      THIS PRODUCT IS RELEASED AS TWO VERSIONS.  ONE VERSION NEAR
      THE TOP OF THE HOUR CONTAINING PRELIMINARY DATA FROM ALBUQUERQUE
      AND OTHER STATIONS.  A FINAL VERSION WITH ADDITIONAL DATA IS
      ISSUED ABOUT 10 MINUTES AFTER THE HOUR.

NMZ501-503-504-510>518-292200-
NORTHWEST PLATEAU/NORTHCENTRAL MOUNTAINS

CITY           SKY/WX    TMP DP  RH WIND       PRES   REMARKS
FARMINGTON     SUNNY     84  51  31 SW8       30.20F
LOS ALAMOS     PTSUNNY   62  60  93 S7        30.37S
SANTA FE       LGT RAIN  68  58  70 N15       30.30S
TAOS           CLOUDY    72  54  53 SW15G21   30.33F
ANGEL FIRE     MOCLDY    67  52  56 SW9G17    30.42R

$$
NMZ402-403-502-505>509-292200-
WESTCENTRAL MOUNTAINS/SOUTHWEST MOUNTAINS

CITY           SKY/WX    TMP DP  RH WIND       PRES   REMARKS
GALLUP         PTSUNNY   82  51  34 VRB6      30.27F

$$
NMZ407-409-411-412-292200-
SOUTHERN DESERTS

CITY           SKY/WX    TMP DP  RH WIND       PRES   REMARKS
LORDSBURG      FAIR      91  54  27 W9        30.14F
DEMING         MOSUNNY   90  57  32 S8        30.14F
LAS CRUCES     SUNNY     89  56  32 SE6G16    30.18F
HOLLOMAN AFB   MOSUNNY   86  59  39 SW7       30.16F
T OR C         LGT RAIN  68  61  78 NE5       30.20S

$$
NMZ519>523-292200-
CENTRAL VALLEYS/CENTRAL HIGHLANDS

CITY           SKY/WX    TMP DP  RH WIND       PRES   REMARKS
ALBUQUERQUE    MOSUNNY   84  55  36 VRB3      30.21F
DOUBLE EAGLE   PTSUNNY   82  54  36 W3        30.25F
CLINES CORNERS PTSUNNY   72  61  68 SW14      30.34F
BELEN          FAIR      84  58  39 S16       30.19F
SOCORRO        FAIR      80  62  54 SE7       30.20F

$$
NMZ524>526-539-540-292200-
SOUTHCENTRAL MOUNTAINS

CITY           SKY/WX    TMP DP  RH WIND       PRES   REMARKS
RUIDOSO        NOT AVBL

$$
NMZ527>531-292200-
NORTHEAST HIGHLANDS/NORTHEAST PLAINS

CITY           SKY/WX    TMP DP  RH WIND       PRES   REMARKS
LAS VEGAS      PTSUNNY   71  59  65 S17       30.31F
RATON          CLOUDY    77  59  53 S13       30.25F
CLAYTON        MOSUNNY   80  57  45 S16G25    30.19F

$$
NMZ532>537-292200-
EASTCENTRAL PLAINS

CITY           SKY/WX    TMP DP  RH WIND       PRES   REMARKS
TUCUMCARI      PTSUNNY   82  61  48 SW13G23   30.15F
CANNON AFB     NOT AVBL
CLOVIS AIRPORT NOT AVBL

$$
NMZ028-029-538-292200-
SOUTHEAST PLAINS

CITY           SKY/WX    TMP DP  RH WIND       PRES   REMARKS
ROSWELL        PTSUNNY   75  66  73 SE6       30.17F
ARTESIA        MOSUNNY   84  59  42 E7        30.15F
CARLSBAD       MOSUNNY   92  56  29 VRB3      30.11F
HOBBS          MOSUNNY   84  59  42 NE9       30.19F


$$



USA.gov is the U.S. government's official web portal to all federal, state and local government web resources and services.